VE9LJW Weather Reports


time (UTC)temp
F
wind
direction
speed
knots
gust
knots
rain 1hr
in
rain 24hr
in
rain mn
in
humidity
%
barometer
mb
20260508122258 53 13 2.6 3.5 0.00 0.00 0.00 81 1001.8
20260508121755 51 43 3.5 4.3 0.00 0.00 0.00 79 1001.7
20260508121254 52 27 4.3 4.3 0.00 0.00 0.00 79 1001.7
20260508120751 51 49 3.5 4.3 0.00 0.00 0.00 80 1001.8
20260508120249 50 59 2.6 4.3 0.00 0.00 0.00 79 1001.9
20260508115746 51 55 2.6 3.5 0.00 0.00 0.00 79 1001.8
20260508115243 51 66 0.9 2.6 0.00 0.00 0.00 78 1002.1
20260508114739 51 187 1.7 2.6 0.00 0.00 0.00 77 1002.1
20260508114236 50 71 0.0 3.5 0.00 0.00 0.00 80 1002.0
20260508113733 51 307 1.7 2.6 0.00 0.00 0.00 80 1001.9
20260508113232 50 245 1.7 5.2 0.00 0.00 0.00 80 1002.3
20260508112727 51 300 1.7 2.6 0.00 0.00 0.00 79 1001.8
20260508112224 50 175 1.7 1.7 0.00 0.00 0.00 80 1001.9
20260508111721 51 246 0.0 1.7 0.00 0.00 0.00 80 1002.1
20260508111219 49 215 0.9 2.6 0.00 0.00 0.00 82 1002.1
20260508110716 49 175 0.9 2.6 0.00 0.00 0.00 82 1002.0
20260508110213 49 201 1.7 2.6 0.00 0.00 0.00 81 1002.2
20260508105712 49 240 0.0 2.6 0.00 0.00 0.00 82 1002.0
20260508105210 48 229 2.6 2.6 0.00 0.00 0.00 82 1001.9
20260508104707 48 246 0.0 3.5 0.00 0.00 0.00 84 1002.3
20260508104204 48 227 2.6 2.6 0.00 0.00 0.00 84 1002.1
20260508103701 48 220 2.6 2.6 0.00 0.00 0.00 84 1002.1
20260508103158 48 201 1.7 2.6 0.00 0.00 0.00 84 1002.1
20260508102655 48 191 0.9 1.7 0.00 0.00 0.00 84 1002.0
20260508102153 47 218 1.7 1.7 0.00 0.00 0.00 84 1001.9
20260508101650 47 206 1.7 2.6 0.00 0.00 0.00 85 1002.1
20260508101148 47 192 0.9 2.6 0.00 0.00 0.00 85 1002.0
20260508100644 47 213 1.7 2.6 0.00 0.00 0.00 86 1001.8
20260508100143 46 228 1.7 2.6 0.00 0.00 0.00 86 1002.0
20260508095639 46 157 0.0 1.7 0.00 0.00 0.00 86 1001.9
20260508095136 46 201 1.7 1.7 0.00 0.00 0.00 89 1001.9
20260508094633 45 208 1.7 1.7 0.00 0.00 0.00 88 1001.6
20260508094130 45 225 2.6 2.6 0.00 0.00 0.00 89 1001.6
20260508093627 44 185 0.9 2.6 0.00 0.00 0.00 91 1001.6
20260508093125 44 212 0.9 1.7 0.00 0.00 0.00 90 1001.6
20260508092622 43 180 1.7 2.6 0.00 0.00 0.00 93 1001.7
20260508092120 43 131 0.9 2.6 0.00 0.00 0.00 93 1001.4
20260508091617 42 177 1.7 2.6 0.00 0.00 0.00 94 1001.7
20260508091114 42 194 0.0 2.6 0.00 0.00 0.00 93 1001.5
20260508090612 43 147 0.0 2.6 0.00 0.00 0.00 92 1001.5
20260508090109 43 160 0.9 2.6 0.00 0.00 0.00 92 1001.6
20260508085605 43 140 0.0 1.7 0.00 0.00 0.00 91 1001.4
20260508085103 43 185 1.7 1.7 0.00 0.00 0.00 91 1001.6
20260508084559 44 173 1.7 2.6 0.00 0.00 0.00 91 1001.8
20260508084057 44 165 0.0 2.6 0.00 0.00 0.00 90 1001.7
20260508083553 44 169 1.7 2.6 0.00 0.00 0.00 89 1001.6
20260508083050 44 166 1.7 1.7 0.00 0.00 0.00 89 1001.7
20260508082546 44 184 1.7 1.7 0.00 0.00 0.00 90 1001.8
20260508082043 44 144 3.5 3.5 0.00 0.00 0.00 91 1001.6
20260508081541 44 184 2.6 2.6 0.00 0.00 0.00 91 1001.5
20260508081036 44 192 0.9 1.7 0.00 0.00 0.00 90 1001.4
20260508080535 44 169 0.9 1.7 0.00 0.00 0.00 90 1001.6
20260508080032 45 157 0.0 1.7 0.00 0.00 0.00 90 1001.4
20260508075528 44 180 2.6 2.6 0.00 0.00 0.00 90 1001.6
20260508075026 45 168 0.9 3.5 0.00 0.00 0.00 89 1001.3
20260508074524 44 175 1.7 1.7 0.00 0.00 0.00 90 1001.6
20260508074020 45 203 0.0 1.7 0.00 0.00 0.00 90 1001.4
20260508073517 46 144 2.6 2.6 0.00 0.00 0.00 88 1001.3
20260508073015 46 148 2.6 2.6 0.00 0.00 0.00 87 1001.7
20260508072511 46 139 1.7 2.6 0.00 0.00 0.00 87 1001.6
20260508072008 46 172 2.6 3.5 0.00 0.00 0.00 87 1001.4
20260508071506 46 185 0.0 3.5 0.00 0.00 0.00 87 1001.3
20260508071003 47 253 1.7 2.6 0.00 0.00 0.00 85 1001.5
20260508070501 47 252 2.6 2.6 0.00 0.00 0.00 85 1001.3
20260508065959 47 132 1.7 4.3 0.00 0.00 0.00 86 1001.3
20260508065456 47 151 0.9 3.5 0.00 0.00 0.00 87 1001.5
20260508064954 46 173 0.0 2.6 0.00 0.00 0.00 87 1001.3
20260508064452 47 131 0.0 1.7 0.00 0.00 0.00 87 1001.4
20260508063949 47 180 0.9 3.5 0.00 0.00 0.00 86 1001.4
20260508063446 47 180 1.7 3.5 0.00 0.00 0.00 87 1001.4
20260508062944 47 180 2.6 2.6 0.00 0.00 0.00 86 1001.3
20260508062442 48 180 1.7 2.6 0.00 0.00 0.00 85 1001.5
20260508061938 48 126 0.9 1.7 0.00 0.00 0.00 84 1001.4
20260508061436 48 240 0.0 3.5 0.00 0.00 0.00 84 1001.5
20260508060932 49 117 0.0 1.7 0.00 0.00 0.00 84 1001.5
20260508060430 49 200 0.9 1.7 0.00 0.00 0.00 83 1001.4
20260508055926 50 168 1.7 2.6 0.00 0.00 0.00 81 1001.6
20260508055422 50 165 0.0 2.6 0.00 0.00 0.00 82 1001.5
20260508054919 51 228 1.7 1.7 0.00 0.00 0.00 82 1001.6
20260508054417 51 206 0.0 1.7 0.00 0.00 0.00 81 1001.7
20260508053913 51 206 2.6 2.6 0.00 0.00 0.00 81 1001.5
20260508053410 52 190 1.7 2.6 0.00 0.00 0.00 80 1001.5
20260508052908 52 200 0.0 1.7 0.00 0.00 0.00 80 1001.7
20260508052405 52 246 0.9 1.7 0.00 0.00 0.00 81 1001.6
20260508051901 52 166 0.0 2.6 0.00 0.00 0.00 80 1001.8
20260508051357 53 184 1.7 1.7 0.00 0.00 0.00 80 1001.8
20260508050853 53 248 2.6 4.3 0.00 0.00 0.00 79 1002.0
20260508050350 53 254 0.0 3.5 0.00 0.00 0.00 79 1001.7
20260508045846 53 243 0.9 1.7 0.00 0.00 0.00 79 1001.7
20260508045344 53 248 2.6 4.3 0.00 0.00 0.00 78 1001.5
20260508044842 53 261 0.0 4.3 0.00 0.00 0.00 80 1001.6
20260508044338 53 198 0.9 3.5 0.00 0.00 0.00 79 1001.7
20260508043834 53 270 1.7 4.3 0.00 0.00 0.00 79 1001.8
20260508043331 53 216 1.7 2.6 0.00 0.00 0.00 81 1001.9
20260508042827 53 235 1.7 4.3 0.00 0.00 0.00 80 1001.9
20260508042326 53 228 0.0 2.6 0.00 0.00 0.00 82 1002.0
20260508041822 53 210 1.7 2.6 0.00 0.00 0.00 82 1002.1
20260508041319 53 221 1.7 1.7 0.00 0.00 0.00 83 1001.8
20260508040815 53 245 0.0 2.6 0.00 0.00 0.00 82 1002.1
20260508040313 53 234 0.0 2.6 0.00 0.00 0.00 82 1001.9
20260508035809 54 210 1.7 2.6 0.00 0.00 0.00 82 1002.0
20260508035307 54 246 0.9 2.6 0.00 0.00 0.00 82 1001.8
20260508034803 54 230 1.7 2.6 0.00 0.00 0.00 83 1001.8
20260508034301 54 273 2.6 2.6 0.00 0.00 0.00 83 1001.7
20260508033758 54 201 0.0 1.7 0.00 0.00 0.00 84 1001.7
20260508033256 54 245 1.7 1.7 0.00 0.00 0.00 83 1001.7
20260508032753 54 171 1.7 1.7 0.00 0.00 0.00 85 1001.6
20260508032250 54 206 1.7 1.7 0.00 0.00 0.00 84 1001.7
20260508031747 54 220 0.9 1.7 0.00 0.00 0.00 84 1001.8
20260508031243 54 195 0.0 2.6 0.00 0.00 0.00 85 1001.7
20260508030740 54 165 0.0 1.7 0.00 0.00 0.00 84 1001.9
20260508030237 54 195 0.0 1.7 0.00 0.00 0.00 84 1001.6
20260508025734 54 213 1.7 1.7 0.00 0.00 0.00 84 1001.6
20260508025231 55 180 0.0 1.7 0.00 0.00 0.00 83 1001.7
20260508024726 55 220 0.0 1.7 0.00 0.00 0.00 85 1001.7
20260508024224 55 217 1.7 1.7 0.00 0.00 0.00 84 1001.7
20260508023720 55 262 0.9 1.7 0.00 0.00 0.00 86 1001.6
20260508023218 55 175 0.0 1.7 0.00 0.00 0.00 85 1001.8
20260508022714 55 222 2.6 4.3 0.00 0.29 0.29 84 1001.8
20260508022211 55 258 0.9 1.7 0.00 0.29 0.29 85 1001.6
20260508021707 55 180 0.0 4.3 0.00 0.29 0.29 83 1001.8
20260508021203 55 278 0.9 2.6 0.00 0.29 0.29 84 1001.5
20260508020701 55 195 0.0 1.7 0.00 0.29 0.29 85 1001.7
20260508020157 55 270 0.9 1.7 0.00 0.29 0.29 84 1001.8
20260508015655 55 180 1.7 1.7 0.00 0.29 0.29 83 1001.6
20260508015152 55 194 0.0 1.7 0.00 0.29 0.29 84 1001.6
20260508014648 56 261 0.0 2.6 0.00 0.29 0.29 83 1001.5
20260508014144 56 279 0.0 2.6 0.00 0.29 0.29 82 1001.5
20260508013640 56 270 0.0 2.6 0.00 0.29 0.29 82 1001.6
20260508013137 57 312 0.0 1.7 0.00 0.29 0.29 82 1001.5
20260508012635 57 180 0.9 4.3 0.00 0.29 0.29 81 1001.4
20260508012132 57 14 0.0 1.7 0.00 0.29 0.29 81 1001.2
20260508011630 57 297 1.7 1.7 0.00 0.29 0.29 82 1001.3
20260508011127 57 279 1.7 3.5 0.00 0.29 0.29 83 1001.4
20260508010624 57 71 2.6 4.3 0.00 0.29 0.29 83 1001.3
20260508010122 57 101 2.6 4.3 0.00 0.29 0.29 83 1001.2
20260508005619 57 180 0.0 2.6 0.00 0.29 0.29 81 1001.3
20260508005115 57 78 2.6 4.3 0.00 0.29 0.29 80 1001.2
20260508004611 58 270 3.5 4.3 0.00 0.29 0.29 79 1000.9
20260508004108 58 42 2.6 4.3 0.00 0.29 0.29 79 1001.1
20260508003604 58 303 3.5 4.3 0.00 0.29 0.29 77 1001.0
20260508003102 58 323 3.5 3.5 0.00 0.29 0.29 76 1001.2
20260508002558 59 245 1.7 4.3 0.00 0.29 0.29 75 1000.8
20260508002056 59 261 2.6 3.5 0.00 0.29 0.29 75 1000.9
20260508001551 59 276 2.6 6.1 0.00 0.29 0.29 73 1000.7
20260508001047 60 263 3.5 6.1 0.00 0.29 0.29 73 1000.6
20260508000543 60 301 5.2 7.8 0.00 0.29 0.29 71 1000.5
20260508000041 60 270 5.2 7.8 0.00 0.29 0.29 70 1000.6
20260507235537 61 258 4.3 8.7 0.00 0.29 0.29 67 1000.2
20260507235035 61 256 6.1 10.4 0.00 0.29 0.29 64 1000.3
20260507234531 62 266 4.3 7.0 0.00 0.29 0.29 62 1000.2
20260507234028 62 268 5.2 9.6 0.00 0.29 0.29 60 999.8
20260507233524 63 268 4.3 5.2 0.00 0.29 0.29 57 999.9
20260507233023 63 297 2.6 5.2 0.00 0.29 0.29 56 999.6
20260507232519 63 276 0.9 5.2 0.00 0.29 0.29 57 999.4
20260507232017 64 278 1.7 3.5 0.00 0.29 0.29 57 999.5
20260507231513 64 270 2.6 2.6 0.00 0.29 0.29 57 999.4
20260507231010 64 260 1.7 2.6 0.00 0.29 0.29 56 999.4
20260507230507 64 312 1.7 3.5 0.00 0.29 0.29 56 999.2
20260507230003 64 261 1.7 4.3 0.00 0.29 0.29 55 999.4
20260507225458 64 261 2.6 2.6 0.00 0.29 0.29 57 999.1
20260507224955 64 215 0.0 1.7 0.00 0.29 0.29 58 999.4
20260507224450 64 174 0.0 0.0 0.00 0.29 0.29 59 999.3
20260507223947 64 195 0.0 1.7 0.00 0.29 0.29 61 999.3
20260507223443 64 188 0.0 0.9 0.00 0.29 0.29 63 999.3
20260507222941 64 180 0.0 0.0 0.00 0.29 0.29 56 999.4
20260507222438 64 195 0.0 1.7 0.00 0.29 0.29 55 999.4
20260507221934 65 195 0.9 1.7 0.00 0.29 0.29 56 999.3
20260507221431 65 215 0.0 1.7 0.00 0.29 0.29 54 999.4
20260507220927 65 215 0.0 1.7 0.00 0.29 0.29 54 999.2
20260507220425 65 262 0.0 2.6 0.00 0.29 0.29 51 999.2
20260507215921 65 206 1.7 2.6 0.00 0.29 0.29 54 999.1
20260507215418 65 245 1.7 1.7 0.00 0.29 0.29 55 999.2
20260507214915 66 285 0.9 4.3 0.00 0.29 0.29 51 999.2
20260507214413 66 240 0.0 2.6 0.00 0.29 0.29 50 999.0
20260507213908 66 286 0.0 1.7 0.00 0.29 0.29 51 999.0
20260507213405 65 187 0.0 2.6 0.00 0.29 0.29 50 998.9
20260507212902 65 303 1.7 3.5 0.00 0.29 0.29 48 998.8
20260507212358 65 121 2.6 4.3 0.00 0.29 0.29 51 998.9
20260507211854 65 45 2.6 2.6 0.00 0.29 0.29 55 999.0
20260507211351 65 90 0.9 2.6 0.00 0.29 0.29 53 998.9
20260507210848 65 38 1.7 1.7 0.00 0.29 0.29 53 999.1
20260507210345 65 200 0.0 2.6 0.00 0.29 0.29 59 999.1
20260507205842 66 41 0.0 3.5 0.00 0.29 0.29 49 999.0
20260507205338 66 278 0.0 0.9 0.00 0.29 0.29 54 998.9
20260507204835 67 250 1.7 3.5 0.00 0.29 0.29 52 999.1
20260507204332 67 10 1.7 3.5 0.00 0.29 0.29 49 999.0
20260507203830 66 258 1.7 4.3 0.00 0.29 0.29 48 998.8
20260507203328 68 279 0.0 3.5 0.00 0.29 0.29 45 998.8
20260507202823 65 270 0.0 3.5 0.00 0.29 0.29 44 999.0
20260507202320 66 1 3.5 4.3 0.00 0.29 0.29 51 999.0
20260507201815 66 250 0.0 2.6 0.00 0.29 0.29 48 998.7
20260507201311 64 0 0.0 3.5 0.00 0.29 0.29 48 998.8
20260507200808 65 90 0.0 4.3 0.00 0.29 0.29 50 998.9
20260507200304 66 267 2.6 6.1 0.00 0.29 0.29 49 998.7
20260507195800 65 0 2.6 4.3 0.00 0.29 0.29 58 999.1
20260507195257 66 261 1.7 3.5 0.00 0.29 0.29 58 999.2
20260507194755 64 107 1.7 2.6 0.00 0.29 0.29 58 999.2
20260507194250 64 245 1.7 4.3 0.00 0.29 0.29 53 999.2
20260507193747 65 157 0.0 3.5 0.00 0.29 0.29 59 999.1
20260507193244 63 15 0.0 4.3 0.00 0.29 0.29 58 999.0
20260507192740 66 300 2.6 4.3 0.00 0.29 0.29 56 998.8
20260507192237 65 29 1.7 2.6 0.00 0.29 0.29 55 999.0
20260507191733 64 290 1.7 3.5 0.00 0.29 0.29 56 999.4
20260507191230 64 298 3.5 5.2 0.00 0.29 0.29 56 999.2
20260507190727 64 331 0.0 4.3 0.00 0.29 0.29 59 999.2
20260507190225 64 305 2.6 4.3 0.00 0.29 0.29 55 999.2
20260507185724 64 286 2.6 3.5 0.00 0.29 0.29 59 999.5
20260507185220 65 301 5.2 5.2 0.00 0.29 0.29 57 999.2
20260507184718 65 288 3.5 3.5 0.00 0.29 0.29 55 999.3
20260507184215 65 257 5.2 5.2 0.00 0.29 0.29 57 999.2
20260507183712 66 266 4.3 5.2 0.00 0.29 0.29 57 999.2
20260507183209 65 307 0.0 4.3 0.00 0.29 0.29 58 999.2
20260507182706 63 344 2.6 3.5 0.00 0.29 0.29 62 999.4
20260507182201 64 292 1.7 5.2 0.00 0.29 0.29 56 999.3
20260507181658 64 263 2.6 4.3 0.00 0.29 0.29 60 999.5
20260507181154 63 292 1.7 3.5 0.00 0.29 0.29 60 999.3
20260507180651 62 248 2.6 3.5 0.00 0.29 0.29 63 999.3
20260507180148 63 33 4.3 6.1 0.00 0.29 0.29 61 999.6
20260507175643 63 258 1.7 4.3 0.00 0.29 0.29 62 999.5
20260507175141 65 77 1.7 3.5 0.00 0.29 0.29 57 999.8
20260507174638 64 53 1.7 3.5 0.00 0.29 0.29 63 999.7
20260507174136 65 315 1.7 4.3 0.00 0.29 0.29 60 999.8
20260507173633 64 235 1.7 6.1 0.00 0.29 0.29 63 999.6
20260507173130 63 247 3.5 3.5 0.00 0.29 0.29 61 999.6
20260507172626 64 270 1.7 3.5 0.00 0.29 0.29 64 999.9
20260507172124 62 17 2.6 3.5 0.00 0.29 0.29 65 1000.0
20260507171619 64 292 1.7 4.3 0.00 0.29 0.29 65 1000.0
20260507171116 62 247 1.7 5.2 0.00 0.29 0.29 67 1000.1
20260507170613 61 275 2.6 6.1 0.00 0.29 0.29 67 1000.1
20260507170110 63 311 4.3 7.0 0.00 0.29 0.29 65 1000.1
20260507165605 61 303 1.7 4.3 0.00 0.29 0.29 66 1000.1
20260507165102 61 86 2.6 3.5 0.00 0.29 0.29 71 1000.4
20260507164558 61 321 2.6 3.5 0.00 0.29 0.29 70 1000.3
20260507164055 60 48 3.5 3.5 0.00 0.29 0.29 70 1000.4
20260507163552 61 289 0.0 3.5 0.00 0.29 0.29 71 1000.6
20260507163050 62 336 1.7 4.3 0.00 0.29 0.29 69 1000.4
20260507162550 60 297 2.6 7.8 0.00 0.29 0.29 74 1000.5
20260507162048 60 68 1.7 3.5 0.00 0.29 0.29 73 1000.2
20260507161544 60 228 1.7 3.5 0.00 0.29 0.29 73 1000.5
20260507161040 59 270 1.7 4.3 0.00 0.29 0.29 71 1000.3
20260507160537 60 273 2.6 6.1 0.00 0.29 0.29 71 1000.5
20260507160033 59 304 4.3 7.0 0.00 0.29 0.29 74 1000.3
20260507155529 59 247 4.3 6.1 0.00 0.29 0.29 76 1000.4
20260507155026 61 290 3.5 3.5 0.00 0.29 0.29 74 1000.6
20260507154522 59 241 2.6 3.5 0.00 0.29 0.29 74 1000.7
20260507154020 57 270 2.6 5.2 0.00 0.29 0.29 77 1001.0
20260507153516 60 18 0.0 3.5 0.00 0.29 0.29 75 1000.9
20260507153013 59 221 3.5 4.3 0.00 0.29 0.29 74 1001.2
20260507152508 60 244 3.5 4.3 0.00 0.29 0.29 76 1001.4
20260507152005 59 272 3.5 7.0 0.00 0.29 0.29 76 1001.1
20260507151501 60 90 0.0 4.3 0.00 0.29 0.29 75 1001.2
20260507150958 59 270 2.6 4.3 0.00 0.29 0.29 79 1001.0
20260507150455 59 274 2.6 4.3 0.00 0.29 0.29 75 1001.1
20260507145951 59 300 4.3 5.2 0.00 0.29 0.29 77 1001.2
20260507145447 57 219 2.6 3.5 0.00 0.29 0.29 81 1001.3
20260507144944 58 40 2.6 3.5 0.00 0.29 0.29 82 1001.4
20260507144441 55 252 2.6 5.2 0.00 0.29 0.29 82 1001.7
20260507143938 56 290 4.3 5.2 0.00 0.29 0.29 84 1001.5
20260507143436 55 274 1.7 3.5 0.00 0.29 0.29 85 1002.1
20260507142932 55 203 0.9 3.5 0.00 0.29 0.29 87 1001.7
20260507142428 56 259 2.6 5.2 0.00 0.29 0.29 88 1001.7
20260507141925 56 266 2.6 2.6 0.00 0.29 0.29 87 1001.6
20260507141421 55 286 0.0 4.3 0.00 0.29 0.29 87 1001.5
20260507140918 56 195 0.9 5.2 0.00 0.29 0.29 87 1001.4
20260507140415 57 241 1.7 3.5 0.00 0.29 0.29 86 1001.4
20260507135913 56 320 0.0 3.5 0.00 0.29 0.29 84 1001.6
20260507135409 56 276 0.0 3.5 0.00 0.29 0.29 86 1001.4
20260507134907 55 201 2.6 3.5 0.00 0.29 0.29 87 1001.4
20260507134403 57 279 0.0 4.3 0.00 0.29 0.29 88 1001.4
20260507133859 55 261 3.5 3.5 0.00 0.29 0.29 87 1001.1
20260507133354 54 281 1.7 4.3 0.00 0.29 0.29 88 1001.4
20260507132854 55 299 1.7 2.6 0.00 0.29 0.29 89 1001.3
20260507132349 54 51 3.5 3.5 0.00 0.29 0.29 90 1001.1
20260507131847 54 264 0.9 3.5 0.00 0.29 0.29 91 1001.2
20260507131343 54 280 2.6 4.3 0.00 0.29 0.29 91 1001.4
20260507130840 53 235 2.6 3.5 0.00 0.29 0.29 92 1001.5
20260507130336 55 208 1.7 3.5 0.00 0.29 0.29 94 1001.7
20260507125831 55 260 1.7 3.5 0.00 0.29 0.29 93 1001.6
20260507125327 54 238 2.6 3.5 0.00 0.29 0.29 94 1002.0
20260507124825 54 246 2.6 3.5 0.00 0.29 0.29 94 1002.0
20260507124321 54 241 1.7 2.6 0.00 0.29 0.29 94 1002.1
20260507123820 54 255 1.7 2.6 0.00 0.29 0.29 94 1002.1
20260507123316 54 279 1.7 4.3 0.00 0.29 0.29 94 1002.1
20260507122812 54 261 0.0 3.5 0.00 0.29 0.29 95 1001.8